Welcome to the New NWS' Forecast!
Most changes are behind the scenes, but click here for differences you might notice.
Latest weather observations around

Joplin, Joplin Regional Airport (KJLN)

Using International System of Units (Switch to English Units)
Date/ Time (CDT) Wind (kph) Vis. (km) Weather Sky Cond. Temp (°C) Rel. Humidity Wind Chill (°C) Heat Index (°C) Pressure Precip. (cm)
Air Dwpt 6 hour Altimeter (hPa) Sea level (hPa) 1 hr 3 hr 6 hr
Max Min
Sep 23 08:53 SSE 13 16.09 Clear CLR 25 21     79%   26 1017.3 1016.2      
Sep 23 07:53 SE 5 14.48 Clear CLR 22 20     90%   22 1016.9 1015.9      
Sep 23 06:53 ESE 9 16.09 Clear CLR 21 20     96%     1016.3 1015.3      
Sep 23 05:53 SSE 9 16.09 Clear CLR 21 20     93%     1015.9 1014.8      
Sep 23 04:53 S 11 16.09 Clear CLR 22 20     90%   22 1015.6 1014.5      
Sep 23 03:53 SSE 11 16.09 Clear CLR 22 20     87%   23 1015.2 1014.1      
Sep 23 02:53 SSE 13 16.09 Clear CLR 22 20     87%   23 1015.2 1013.8      
Sep 23 01:53 SSE 9 16.09 Clear CLR 23 20     84%   23 1015.2 1014      
Sep 23 00:53 SE 9 16.09 Clear CLR 23 21     85%   24 1015.6 1014.1      
Sep 22 23:53 SE 8 16.09 Clear CLR 23 21     87%   23 1015.2 1014.1      
Sep 22 22:53 ESE 11 16.09 Clear CLR 23 21     87%   23 1015.2 1014      
Sep 22 21:53 ESE 8 16.09 Clear CLR 24 21     82%   24 1014.9 1013.8      
Sep 22 20:53 SE 8 16.09 Clear CLR 26 20     71%   26 1014.9 1013.7      
Sep 22 19:53 SE 8 16.09 Clear CLR 27 20     67%   28 1014.2 1013.2      
Sep 22 18:53 S 13 16.09 Clear CLR 28 20     61%   30 1014.6 1013.3      
Sep 22 17:53 SSE 15 16.09 Clear CLR 30 21     57%   32 1014.6 1013.2      
Sep 22 16:53 S 17 16.09 Clear CLR 30 20     55%   32 1014.9 1013.7      
Sep 22 15:53 S 26 16.09 Clear CLR 32 21     52%   34 1014.9 1013.7      
Sep 22 14:53 S 21 16.09 Partly Cloudy SCT048 31 21     57%   33 1015.6 1014.4      
Sep 22 13:53 S 22 16.09 Mostly Cloudy BKN044 31 21     57%   33 1016.3 1014.8      
Sep 22 12:53 S 22 16.09 Clear CLR 31 22     59%   34 1016.6 1015.2      
Sep 22 11:53 S 21 16.09 Clear CLR 29 22     63%   32 1016.9 1015.7      
Sep 22 10:53 SSW 28 16.09 Clear CLR 28 22     67%   31 1017.3 1016      
Sep 22 09:53 S 15 16.09 Clear CLR 27 23     79%   29 1016.9 1015.9      
Sep 22 08:53 SSE 18 16.09 Clear CLR 24 22     88%   25 1016.6 1015.4      
Sep 22 07:53 SE 13 14.48 Clear CLR 22 22     97%   23 1016.3 1015.1      
Sep 22 06:53 SSE 11 16.09 Clear   22 21     96%   22 1015.9 1014.6      
Sep 22 05:53 SSE 11 16.09 Clear CLR 22 22     97%   23 1015.6 1014.3      
Sep 22 04:53 SSE 9 16.09 Clear CLR 22 22     97%   23 1015.2 1014      
Sep 22 03:53 SSE 9 16.09 Clear CLR 22 21     93%   23 1014.6 1013.4      
Sep 22 02:53 SSE 9 16.09 Clear CLR 23 22     94%   24 1014.6 1013.4      
Sep 22 01:53 SSE 15 16.09 Clear CLR 24 22     88%   25 1014.6 1013.3      
Sep 22 00:53 SSE 15 16.09 Clear CLR 24 22     85%   25 1014.6 1013.2      
Sep 21 23:53 SE 15 16.09 Clear CLR 25 22     82%   26 1014.6 1013.2      
Sep 21 22:53 SSE 15 16.09 Clear CLR 25 22     82%   26 1014.2 1012.8      
Sep 21 21:53 SSE 13 16.09 Clear CLR 26 22     79%   26 1013.9 1012.7      
Sep 21 20:53 SSE 13 16.09 Clear CLR 27 22     76%   29 1013.6 1012.4      
Sep 21 19:53 SSE 13 16.09 Clear CLR 27 22     74%   30 1012.9 1011.6      
Sep 21 18:53 SSE 17 16.09 Clear CLR 29 22     67%   32 1012.5 1011.2      
Sep 21 17:53 SSE 24 16.09 Clear CLR 31 22     61%   34 1012.5 1011.1      
Sep 21 16:53 SSE 17 16.09 Clear CLR 31 23     63%   36 1012.9 1011.4      
Sep 21 15:53 SSE 22 16.09 Mostly Clear FEW038 31 23     63%   36 1013.2 1011.8      
Sep 21 14:53 S 22 16.09 Partly Cloudy SCT040 32 24     62%   38 1013.6 1012.2      
Sep 21 13:53 SSE 28 16.09 Mostly Cloudy BKN038 32 24     63%   37 1013.9 1012.6      
Sep 21 12:53 S 21 16.09 Partly Cloudy FEW035 SCT070 SCT080 31 24     66%   37 1014.6 1013.4      
Sep 21 11:53 S 24 16.09 Partly Cloudy SCT070 31 24     68%   36 1014.9 1013.7      
Sep 21 10:53 S 26 16.09 Clear CLR 29 24     74%   33 1015.2 1014      
Sep 21 09:53 SSE 22 16.09 Clear CLR 28 23     77%   31 1015.2 1013.9      
Sep 21 08:53 S 17 14.48 Clear CLR 26 23     85%   26 1014.9 1013.7      
Sep 21 07:53 SSE 15 12.87 Clear CLR 24 22     90%   25 1014.6 1013.2      
Sep 21 06:53 SSE 11 14.48 Clear CLR 23 22     94%   24 1013.9 1012.6      
Sep 21 05:53 SSE 11 14.48 Clear CLR 23 22     94%   24 1013.6 1012.2      
Sep 21 04:53 SSE 15 16.09 Clear CLR 24 22     88%   25 1013.2 1011.7      
Sep 21 03:53 S 11 16.09 Clear CLR 24 22     88%   25 1013.2 1011.8      
Sep 21 02:53 S 15 16.09 Clear CLR 26 22     82%   26 1013.2 1011.8      
Sep 21 01:53 S 17 16.09 Clear CLR 26 22     82%   26 1013.6 1012.1      
Sep 21 00:53 S 21 16.09 Clear CLR 26 22     82%   26 1013.6 1012.3      
Sep 20 23:53 S 18 16.09 Clear CLR 26 22     79%   28 1012.9 1011.7      
Sep 20 22:53 SSE 15 16.09 Clear CLR 27 22     76%   29 1012.2 1011      
Sep 20 21:53 SSE 13 16.09 Clear CLR 27 22     74%   29 1011.9 1010.6      
Sep 20 20:53 SSE 11 16.09 Clear CLR 28 22     69%   30 1011.5 1010.1      
Sep 20 19:53 SSE 15 16.09 Clear CLR 29 22     67%   32 1010.5 1009.3      
Sep 20 18:53 SSE 13 16.09 Clear CLR 31 22     61%   34 1010.5 1009      
Sep 20 17:53 SSE 18 16.09 Clear CLR 32 23     58%   37 1010.2 1008.7      
Sep 20 16:53 SSE 26 16.09 Clear CLR 33 23     56%   38 1009.8 1008.5      
Sep 20 15:53   16.09 Clear CLR 33 23     56%   38 1010.2 1008.8      
Sep 20 14:53 S 22 16.09 Clear CLR 33 23     57%   38 1010.2 1008.9      
Sep 20 13:53 S 32 16.09 Clear and Windy CLR 32 24     62%   38 1010.5 1009.2      
Sep 20 12:53   16.09 Clear CLR 32 24     63%   37 1011.2 1010      
Sep 20 11:53   16.09 Mostly Clear FEW032 31 24     68%   36 1011.5 1010.2      
Sep 20 10:53   16.09 Clear CLR 29 24     72%   34 1011.9 1010.5      
Sep 20 09:53   16.09 Clear CLR 28 23     77%   31 1011.5 1010      
Jun 12 01:53 S 15 16.09 Clear CLR 23 18     76%   23 1013.2 1011.9      
Jun 11 21:53 S 17 16.09 Clear CLR 26 18     62%   26 1012.5 1011.3      
Jun 11 11:53   16.09 Partly Cloudy SCT032 29 22     65%   32 1013.9 1012.6      
Jun 11 10:53   16.09 Clear CLR 28 21     65%   31 1013.6 1012.1      
Jun 10 19:53 S 24 16.09 Clear CLR 27 19     62%   29 1010.2 1008.9      
Jun 10 17:53   16.09 Clear CLR 29 20     57%   31 1009.8 1008.8      
Jun 10 11:53   16.09 Clear CLR 28 19     60%   29 1012.5 1011.3      
Jun 09 14:53 S 21 16.09 Partly Cloudy SCT055 27 16     52%   27 1012.9 1012.1      
Jun 09 00:53 SE 5 16.09 Clear CLR 16 13     83%     1013.9 1013      
Jun 08 23:53 S 5 16.09 Clear   17 13     80%     1013.9 1013.1      
Jun 08 12:53 WNW 8 16.09 Clear CLR 26 12     41%   26 1017.6 1016.8      
Jun 08 06:53 Calm 16.09 Clear CLR 13 12     90%     1018 1017.4      
Jun 07 21:53 Calm 16.09 Clear CLR 18 13     75%     1017.6 1016.7      
Jun 07 14:53 NNE 15 16.09 Clear CLR 27 11     37%   27 1018 1017      
Jun 07 11:53 E 15 16.09 Mostly Clear FEW060 26 9     35%   26 1019 1018.2      
Jun 06 11:53 N 8 16.09 Clear CLR 28 18     55%   29 1014.6 1013.4      
Jun 06 10:53 N 8 16.09 Clear CLR 26 19     65%   26 1014.6 1013.3      
Notice The following observation data may not be complete
Jun 06 04:02   3.22 Fog/Mist CLR          %              
Jun 05 19:53 Calm 16.09 Mostly Cloudy BKN075 29 21     63%   31 1010.2 1008.9